Wind_Speed
20 20 20 20 20 21 21 21 21 21 21 22 23 24 24 24 24 25 26 25 26 25 25 25 26 26 25 25 25 26 27 26 26 26 26 25 25 25
22 22 22 22 22 22 23 23 23 24 24 24 24 24 25 25 26 26 27 27 27 26 26 26 26 27 27 27 27 27 28 28 28 28 27 27 26 26
24 24 24 23 23 23 24 24 25 25 25 25 25 25 26 26 26 27 27 27 27 28 28 28 27 27 28 28 29 29 29 29 29 29 29 29 28 28
26 26 25 25 25 25 25 25 25 26 26 25 25 26 26 27 27 27 28 28 28 29 29 29 29 29 29 29 30 30 31 31 31 31 31 30 30 31
27 27 28 27 27 26 26 26 27 27 27 27 27 26 26 27 27 28 28 29 29 30 30 31 31 31 30 31 31 31 31 32 32 32 33 32 31 31
28 29 29 29 29 28 27 27 28 29 29 28 28 28 27 27 28 29 29 30 30 31 31 32 32 32 32 32 33 33 33 33 34 34 34 33 33 32
28 29 29 29 29 29 29 29 29 29 29 29 29 30 29 29 29 30 30 30 30 31 31 32 33 33 33 33 33 34 34 34 35 36 36 34 34 33
29 30 29 29 29 30 30 29 30 30 30 30 30 31 30 31 31 31 31 31 31 31 32 32 33 33 34 34 34 34 35 36 36 36 36 36 35 35
30 30 30 30 30 30 30 31 31 31 31 30 30 31 31 32 32 32 32 32 32 32 32 32 32 33 34 34 34 34 35 35 36 36 35 36 36 37
31 31 31 30 30 30 31 31 31 31 31 31 31 31 31 31 31 31 31 32 31 31 32 32 32 32 33 33 34 34 34 34 35 35 36 36 37 37
32 32 32 32 31 31 31 31 31 31 31 31 31 31 30 30 31 31 31 31 30 30 31 32 32 33 33 33 34 34 34 34 34 35 36 36 37 37
33 33 32 32 32 32 31 31 31 31 31 31 31 31 30 30 30 30 30 30 30 30 31 31 32 33 33 33 33 34 35 35 35 34 34 35 36 37
33 32 32 32 32 32 31 31 30 30 29 30 29 29 30 30 30 30 30 31 31 31 31 32 32 32 32 32 32 33 34 34 34 34 34 34 35 36
32 32 32 32 32 31 31 31 30 30 29 29 29 30 30 31 31 31 31 31 31 31 31 31 31 31 32 32 32 32 32 32 32 33 34 35 34 34
32 32 32 32 31 31 30 30 29 29 29 29 29 30 30 31 31 31 31 30 30 30 30 30 30 30 31 31 31 31 31 31 31 32 33 33 33 33
32 32 32 31 31 31 31 30 30 30 29 29 30 30 30 30 30 30 30 30 30 30 30 30 30 30 29 29 29 30 31 31 32 31 31 31 31 32
32 31 31 31 31 31 31 30 29 28 28 28 29 29 29 29 29 29 29 29 29 29 28 28 29 28 27 27 27 28 29 30 30 31 31 31 31 31
32 32 31 31 31 30 30 29 28 27 27 28 28 28 28 28 28 28 28 28 27 27 27 27 27 27 27 26 26 26 26 27 28 28 29 28 28 29
32 31 31 31 30 30 30 29 28 27 27 27 27 27 27 27 27 27 27 27 26 26 26 27 27 27 27 26 26 26 26 25 26 26 26 26 26 27
31 31 31 31 30 30 29 28 27 27 26 26 26 26 27 27 27 27 27 27 26 26 25 25 26 26 25 25 25 24 24 23 24 23 23 24 24 25
28 28 28 29 28 28 28 27 27 26 25 25 26 26 26 26 26 26 26 26 26 26 27 26 25 25 24 24 23 23 23 23 22 22 22 22 23 23
27 27 27 27 27 27 27 27 26 25 25 25 26 27 27 26 26 26 25 25 25 25 25 25 24 23 23 23 23 22 22 22 23 22 21 21 21 20
27 26 25 25 25 25 25 26 25 25 25 26 26 26 26 26 25 24 24 24 24 24 23 23 23 22 22 22 21 21 21 22 22 21 21 21 21 20
Wind_Direction
295 293 291 290 288 286 283 279 277 276 276 276 274 274 274 276 276 275 274 274 273 272 272 271 271 270 270 269 269 267 266 266 266 266 267 270 269 269
295 294 291 288 287 286 284 280 278 278 278 279 277 275 276 277 276 276 275 274 273 272 272 272 270 270 270 269 270 269 267 266 265 265 265 266 268 269
292 291 290 287 286 286 283 280 279 279 280 279 279 276 276 275 277 277 276 274 273 273 273 272 271 270 269 269 270 269 269 268 266 267 265 265 266 268
292 289 289 286 286 284 283 282 280 279 280 280 279 277 276 276 278 279 278 276 274 274 274 273 272 270 270 269 270 270 270 269 268 267 266 265 266 268
292 290 288 285 285 284 283 282 281 281 280 280 277 277 276 276 277 279 279 277 275 275 274 273 272 271 270 269 270 269 269 268 267 267 267 265 265 266
292 290 287 287 285 285 284 284 283 282 281 279 278 278 278 278 278 279 279 278 277 276 274 273 272 272 271 270 270 270 269 268 265 266 265 264 265 266
291 290 288 288 287 285 284 284 283 282 281 280 279 279 280 281 280 280 280 279 279 278 276 274 272 272 271 271 271 271 269 268 266 264 263 263 264 264
292 289 289 288 287 285 285 285 284 283 282 281 280 280 280 281 281 281 281 281 279 279 278 276 274 272 271 271 271 271 271 270 267 264 262 263 264 265
293 291 289 288 286 286 286 286 285 285 283 281 281 282 281 281 282 282 282 282 281 280 278 277 276 274 272 271 270 270 271 270 267 264 265 266 265 265
292 291 288 287 285 285 285 285 286 285 284 282 282 282 282 281 282 283 282 282 281 280 278 278 277 276 273 271 270 270 271 269 267 266 267 267 267 266
290 289 288 285 286 286 285 284 285 284 283 284 283 282 282 281 283 284 283 283 283 281 280 279 277 276 275 273 271 271 269 268 268 267 267 267 267 267
290 288 287 286 286 286 287 286 284 284 283 282 282 282 281 282 283 284 284 284 284 282 281 280 279 278 276 275 274 273 271 269 269 268 269 268 267 267
289 287 287 287 288 287 287 286 284 284 283 282 282 282 282 282 282 283 283 284 284 283 282 281 281 280 278 276 275 274 274 272 271 270 272 270 270 268
287 287 288 288 288 287 287 286 284 284 284 283 283 283 283 283 282 282 283 284 285 284 283 282 282 281 279 276 275 274 273 273 272 272 273 273 273 272
286 286 287 288 287 286 287 286 285 284 284 284 284 284 284 283 283 283 282 283 284 284 283 283 283 282 280 278 275 273 274 274 274 274 275 275 274 274
286 285 286 286 286 285 285 285 285 284 284 284 284 285 285 284 283 283 282 282 283 284 283 283 284 284 282 280 278 277 275 275 275 275 276 276 277 276
286 285 284 284 284 284 284 285 286 285 285 285 283 283 285 285 283 282 282 281 283 283 282 283 284 284 283 282 282 279 278 277 276 276 276 276 277 277
286 285 284 283 283 284 283 284 285 285 285 286 284 283 284 285 284 284 283 282 281 281 281 281 283 284 285 284 285 283 281 280 278 277 277 277 276 276
284 283 282 282 281 282 282 282 283 285 285 286 286 284 283 284 284 284 283 282 281 281 280 281 282 282 282 283 285 284 284 283 281 280 280 279 277 276
284 282 281 280 279 280 281 281 282 282 283 284 285 286 285 285 284 284 283 282 281 280 280 282 282 282 282 283 283 281 282 284 284 283 281 281 280 280
285 284 283 280 279 279 281 282 281 280 281 283 286 287 286 285 285 284 283 282 280 279 281 283 282 281 283 282 282 280 281 281 283 285 284 282 281 282
286 284 283 281 279 279 280 281 281 281 281 283 286 287 287 286 286 284 283 283 282 281 281 282 282 283 284 283 282 282 282 281 282 282 281 282 283 283
286 285 283 281 281 281 280 280 280 281 282 284 286 289 289 288 287 285 284 284 283 282 283 281 280 281 281 281 280 280 282 282 281 281 281 281 281 282
Height
5851 5849 5847 5846 5845 5844 5843 5842 5842 5841 5841 5840 5839 5838 5837 5836 5836 5835 5835 5834 5834 5834 5834 5833 5833 5833 5833 5833 5833 5833 5834 5834 5835 5835 5835 5836 5836 5836
5846 5844 5842 5840 5839 5838 5836 5836 5835 5835 5834 5833 5832 5831 5830 5829 5829 5828 5827 5827 5826 5826 5826 5825 5825 5825 5825 5825 5825 5826 5826 5826 5827 5827 5828 5828 5829 5829
5840 5838 5836 5834 5833 5831 5830 5829 5828 5827 5827 5826 5825 5824 5823 5822 5821 5821 5820 5819 5819 5818 5818 5817 5817 5817 5817 5817 5817 5818 5818 5818 5819 5819 5820 5820 5821 5821
5833 5831 5829 5827 5826 5824 5823 5822 5821 5820 5819 5819 5818 5816 5815 5814 5814 5813 5812 5811 5810 5810 5810 5809 5809 5809 5809 5809 5809 5809 5809 5810 5810 5811 5811 5812 5812 5813
5826 5824 5822 5820 5819 5817 5816 5814 5813 5813 5812 5811 5810 5809 5808 5807 5806 5805 5804 5803 5802 5801 5801 5801 5800 5800 5800 5800 5800 5800 5801 5801 5801 5801 5802 5803 5803 5804
5819 5817 5815 5813 5811 5810 5808 5807 5806 5805 5804 5803 5802 5801 5800 5799 5798 5797 5796 5794 5793 5793 5792 5791 5791 5791 5791 5791 5791 5791 5791 5791 5791 5792 5792 5793 5794 5795
5811 5809 5807 5805 5803 5802 5801 5799 5798 5797 5795 5794 5794 5793 5792 5790 5789 5788 5787 5785 5784 5783 5783 5782 5782 5781 5781 5781 5781 5781 5781 5781 5782 5782 5783 5784 5785 5786
5804 5802 5799 5798 5796 5794 5793 5791 5790 5788 5787 5786 5785 5784 5783 5781 5780 5779 5778 5776 5775 5775 5773 5773 5772 5772 5771 5771 5771 5771 5771 5771 5771 5772 5773 5774 5775 5776
5796 5794 5792 5790 5788 5786 5784 5783 5781 5779 5778 5777 5775 5774 5773 5772 5771 5769 5768 5767 5766 5765 5763 5763 5762 5762 5762 5761 5761 5761 5761 5761 5761 5762 5762 5763 5764 5765
5787 5785 5783 5781 5778 5777 5775 5774 5772 5770 5769 5767 5766 5765 5764 5762 5761 5760 5758 5757 5756 5755 5754 5753 5753 5752 5752 5751 5751 5751 5751 5750 5751 5751 5752 5752 5753 5754
5778 5775 5773 5771 5769 5767 5766 5764 5762 5761 5759 5758 5756 5755 5754 5753 5751 5750 5749 5748 5747 5746 5744 5744 5743 5742 5742 5741 5741 5740 5740 5740 5740 5741 5741 5742 5742 5743
5768 5766 5763 5761 5760 5758 5756 5754 5753 5751 5750 5748 5747 5746 5745 5743 5742 5741 5740 5738 5737 5737 5735 5734 5733 5732 5732 5732 5731 5730 5730 5730 5730 5730 5730 5730 5731 5732
5758 5756 5754 5752 5750 5748 5746 5744 5743 5742 5740 5739 5738 5737 5735 5734 5733 5732 5730 5729 5728 5727 5726 5724 5724 5722 5722 5722 5721 5720 5720 5720 5720 5720 5719 5720 5720 5720
5748 5746 5744 5742 5740 5738 5736 5734 5733 5732 5731 5730 5729 5727 5726 5725 5724 5722 5721 5720 5718 5717 5716 5715 5714 5713 5712 5712 5711 5711 5710 5710 5710 5709 5709 5709 5709 5709
5738 5736 5734 5732 5730 5729 5727 5725 5724 5723 5722 5721 5719 5718 5717 5715 5714 5713 5711 5710 5709 5708 5707 5706 5705 5704 5703 5702 5702 5701 5700 5700 5699 5699 5699 5699 5698 5698
5728 5726 5724 5722 5721 5719 5718 5716 5715 5714 5712 5711 5710 5709 5707 5706 5704 5703 5702 5701 5700 5699 5698 5697 5696 5695 5693 5692 5692 5691 5690 5690 5690 5689 5689 5688 5688 5688
5718 5716 5715 5713 5712 5710 5709 5707 5705 5704 5703 5702 5700 5699 5698 5696 5695 5694 5693 5692 5691 5690 5689 5688 5686 5685 5684 5683 5682 5682 5681 5680 5680 5679 5679 5679 5678 5678
5708 5706 5705 5703 5702 5701 5699 5698 5696 5695 5694 5692 5691 5690 5689 5688 5686 5685 5684 5683 5682 5681 5681 5680 5678 5677 5676 5675 5674 5672 5672 5671 5670 5670 5669 5669 5669 5668
5697 5696 5695 5694 5693 5691 5690 5689 5688 5687 5685 5684 5683 5682 5680 5679 5678 5677 5676 5675 5674 5673 5672 5671 5670 5669 5668 5667 5666 5665 5664 5663 5662 5662 5661 5660 5660 5660
5686 5685 5684 5683 5683 5682 5681 5680 5679 5678 5677 5676 5675 5674 5672 5671 5670 5668 5667 5666 5666 5665 5664 5662 5661 5660 5660 5659 5658 5658 5656 5656 5655 5654 5653 5652 5652 5651
5677 5676 5675 5674 5673 5673 5672 5671 5670 5670 5669 5668 5667 5666 5664 5663 5661 5660 5659 5658 5657 5656 5655 5655 5653 5653 5652 5651 5651 5650 5649 5648 5647 5647 5646 5645 5645 5644
5669 5668 5667 5665 5665 5664 5664 5663 5662 5661 5661 5660 5659 5658 5656 5655 5653 5652 5651 5650 5649 5648 5648 5647 5646 5645 5645 5644 5643 5643 5642 5641 5640 5639 5639 5638 5637 5637
5661 5660 5658 5658 5657 5656 5656 5655 5654 5653 5653 5652 5651 5650 5648 5647 5645 5644 5643 5642 5641 5641 5640 5639 5638 5638 5637 5637 5636 5635 5635 5634 5634 5633 5632 5631 5631 5630